Location: Le Gr�zie
(43.6000°N, 13.5000°E)
Time: 05:48:00
(UTC+00:00)

X-37B - Visible Passes

Search period start: 18 June 2021 00:00
Search period end: 28 June 2021 00:00
Orbit: 386 x 389 km, 45.0° (Epoch: 10 June)

Date Brightness Start Highest point End Pass type
(mag) Time Alt. Az. Time Alt. Az. Time Alt. Az.
18 Jun 0.8 00:48:20 50° WNW 00:48:59 68° N 00:52:09 10° ENE visible
18 Jun 0.6 02:22:33 10° WNW 02:25:44 85° NNE 02:28:55 10° ESE visible
18 Jun 2.5 23:52:21 24° ENE 23:52:21 24° ENE 23:53:46 10° ENE visible
19 Jun 0.8 01:24:37 13° WNW 01:27:21 70° N 01:30:31 10° E visible
20 Jun 0.9 00:28:47 63° NNW 00:28:56 64° N 00:32:05 10° E visible
20 Jun 0.5 02:02:28 10° WNW 02:05:38 69° SSW 02:08:47 10° ESE visible
20 Jun 3.3 23:33:13 13° ENE 23:33:13 13° ENE 23:33:41 10° ENE visible
21 Jun 0.5 01:05:32 24° WNW 01:07:17 85° NNE 01:10:27 10° ESE visible
21 Jun 1.6 02:40:57 10° W 02:43:42 27° SSW 02:46:27 10° SSE visible
22 Jun 2.5 00:10:41 23° E 00:10:41 23° E 00:12:03 10° E visible
22 Jun 0.8 01:43:04 15° W 01:45:28 44° SSW 01:48:30 10° SE visible
22 Jun 2.1 19:55:12 10° SSW 19:57:27 18° SSE 19:58:53 14° ESE visible
22 Jun 2.8 21:30:35 10° WSW 21:31:23 16° WSW 21:31:23 16° WSW visible
23 Jun 2.9 00:49:38 15° ESE 00:49:38 15° ESE 00:50:19 10° ESE visible
23 Jun 2.2 02:22:08 13° WSW 02:23:25 16° SW 02:25:29 10° S visible
23 Jun 0.7 20:32:21 10° SW 20:35:26 48° SSE 20:37:46 16° E visible
23 Jun 2.6 22:08:53 10° W 22:10:08 22° W 22:10:08 22° W visible
24 Jun 1.4 19:34:20 10° SW 19:37:10 30° SSE 19:40:01 10° E visible
24 Jun 0.6 21:10:28 10° W 21:13:39 81° NNW 21:15:10 28° ENE visible
24 Jun 3.4 22:47:14 10° WNW 22:47:29 12° WNW 22:47:29 12° WNW visible
25 Jun 0.5 20:12:06 10° WSW 20:15:16 75° SSE 20:18:28 10° ENE visible
25 Jun 0.9 21:48:50 10° W 21:51:53 64° NNW 21:51:53 64° NNW visible
26 Jun 0.9 20:50:24 10° W 20:53:35 68° N 20:56:01 16° ENE visible
26 Jun 2.8 22:27:09 10° WNW 22:28:17 20° WNW 22:28:17 20° WNW visible
27 Jun 0.7 19:51:59 10° W 19:55:11 81° NNW 19:58:22 10° ENE visible
27 Jun 0.8 21:28:46 10° WNW 21:31:57 70° N 21:32:18 62° NE visible
